Wind_Speed
24 26 27 29 28 28 26 27 27 26 26 30 34 41 49 52 58 58 55 41 42 49 43 46 43 41 42 43 45 27 18 29 32 32 30 31 30 29 29 28 26 26 25 26 22 20 20
26 26 28 28 28 29 30 28 29 27 25 25 28 30 37 45 52 57 63 56 43 38 46 42 43 44 46 50 43 39 35 25 17 23 30 32 31 31 32 31 31 29 27 28 27 25 23
28 28 29 30 31 31 29 28 27 25 24 25 25 28 29 35 40 49 55 63 58 50 37 37 38 41 51 54 40 34 39 39 35 26 22 23 30 32 34 33 33 31 32 33 32 25 24
27 28 29 29 29 29 29 28 27 24 23 22 22 23 25 26 28 32 50 51 62 61 54 36 34 39 51 52 48 45 34 37 40 36 31 26 26 30 34 31 31 28 32 33 32 28 27
28 29 28 28 28 26 27 28 28 26 25 25 23 21 23 22 25 29 27 43 47 55 63 51 34 29 51 58 50 46 43 36 27 40 35 32 30 31 32 32 32 31 20 25 31 28 26
30 29 28 28 28 26 25 27 28 30 31 29 25 25 22 20 21 22 26 24 31 42 51 63 57 35 38 41 56 50 44 42 42 32 34 43 37 39 41 40 35 25 27 26 35 29 28
30 30 30 28 27 26 25 25 26 28 29 27 25 24 22 21 19 19 23 25 29 35 45 54 54 39 16 15 32 30 45 43 48 46 49 39 49 60 56 48 40 29 21 28 27 30 30
30 30 30 27 26 25 25 25 24 24 25 26 25 26 27 24 19 21 19 19 19 22 31 41 50 58 49 8 10 24 35 41 50 53 48 43 56 56 48 48 46 43 42 42 26 26 31
29 29 28 26 25 24 24 24 24 24 24 24 23 24 25 28 23 18 19 16 16 17 25 38 42 55 57 46 23 17 26 36 45 50 56 57 68 53 46 44 44 52 48 36 32 24 33
28 27 25 25 25 25 24 24 23 23 23 23 22 21 22 23 28 21 14 13 11 16 18 27 35 51 53 53 51 24 25 34 38 44 53 54 59 45 45 52 50 46 39 37 32 21 27
27 26 25 24 25 25 24 24 24 23 22 22 21 19 18 21 25 26 18 15 7 6 5 5 17 18 28 46 51 44 27 33 38 37 41 52 38 48 40 53 39 46 38 27 22 25 25
25 26 25 24 24 25 25 24 23 23 22 22 21 19 20 17 22 21 18 18 9 8 8 6 8 18 22 27 41 44 30 42 34 31 38 44 35 31 53 45 30 29 14 10 10 14 18
27 25 25 25 24 24 24 25 24 23 23 22 21 20 18 18 16 15 14 13 10 7 8 7 12 14 23 31 39 46 37 44 38 30 29 39 44 30 28 26 30 35 21 5 8 7 16
26 25 25 25 24 24 24 24 24 24 23 23 22 22 19 17 15 15 15 24 12 17 29 12 5 13 16 23 29 38 39 42 47 42 16 24 14 41 46 52 36 40 39 14 10 10 9
28 27 25 24 24 24 23 23 23 23 23 23 24 23 22 14 15 19 20 21 30 31 16 24 13 8 9 19 19 24 42 41 46 48 35 16 20 20 32 43 40 25 35 46 17 12 5
27 28 28 26 24 24 23 23 23 22 23 23 24 23 19 14 16 19 27 44 26 20 17 15 13 12 6 9 14 11 22 16 41 43 49 38 23 26 28 24 37 40 33 22 23 7 8
27 28 27 27 26 25 23 23 22 22 22 21 22 22 11 8 16 24 42 40 15 29 35 17 17 15 14 16 17 13 10 19 14 28 40 45 34 15 30 36 40 38 30 19 24 26 10
28 28 28 28 26 25 23 22 21 21 22 20 16 18 7 9 16 29 43 41 37 24 12 14 29 36 31 23 23 22 24 27 13 14 24 37 23 28 36 18 33 42 52 44 17 17 24
28 28 27 28 27 25 25 23 20 19 19 21 20 22 16 19 27 30 36 34 37 30 22 21 26 27 26 27 20 25 35 36 34 26 13 9 14 27 31 32 35 38 47 49 54 29 40
28 28 28 26 27 26 25 22 21 19 17 19 20 20 21 21 19 25 30 36 34 33 32 41 40 30 27 23 24 24 33 36 28 21 22 26 24 19 13 9 11 48 42 52 56 40 50
28 27 27 26 26 25 24 23 22 20 17 19 22 26 22 19 22 28 30 34 30 35 35 34 32 26 24 24 28 39 37 35 37 39 25 22 25 19 16 26 27 26 20 33 54 58 46
28 28 27 26 26 22 25 23 21 22 18 21 25 27 27 30 26 26 28 37 34 30 33 37 35 33 31 40 47 33 28 30 33 19 5 18 29 28 37 45 37 43 36 34 38 38 59
28 27 27 25 24 23 22 22 20 20 19 22 24 24 26 31 31 25 26 34 30 33 39 38 34 33 40 48 34 37 33 34 36 32 24 21 27 21 33 22 19 22 40 26 32 32 48
30 27 25 26 22 26 26 24 22 21 21 23 22 24 28 36 37 36 37 31 32 36 42 39 35 40 48 36 39 40 36 34 33 36 37 38 30 27 34 19 14 33 30 30 31 34 36
31 27 25 25 20 24 27 24 22 22 21 26 23 25 31 39 40 40 37 35 36 36 38 40 40 44 35 39 39 28 27 29 45 41 39 38 34 23 16 21 31 42 33 29 29 43 29
30 26 26 26 24 21 26 26 23 23 23 26 26 26 32 39 43 38 40 39 38 38 41 42 38 34 32 44 34 29 20 24 10 13 18 31 44 38 23 12 10 42 32 20 27 51 49
28 25 26 27 26 26 26 23 21 23 23 25 28 26 31 40 39 39 43 45 37 36 43 41 39 40 34 38 34 28 27 30 22 22 17 26 34 43 43 27 20 53 50 37 27 43 48
24 26 26 27 27 28 26 25 22 21 23 26 32 25 30 40 48 46 44 38 35 35 36 39 40 28 22 32 32 22 24 30 28 30 30 27 23 26 35 25 20 56 42 32 38 48 42
23 27 27 26 28 27 25 24 20 20 23 26 32 23 30 37 43 37 29 27 30 33 39 33 35 33 20 27 25 23 22 22 34 28 30 29 35 28 24 34 42 46 31 32 23 30 39
Wind_Direction
310 309 308 310 313 316 319 322 323 319 313 300 278 264 255 249 247 244 240 235 236 245 245 241 246 245 244 242 237 235 237 238 239 237 230 234 237 240 242 247 247 248 254 256 259 250 254
308 303 301 304 307 308 312 311 313 314 310 307 303 286 266 258 251 252 246 237 232 229 233 237 237 245 243 242 241 234 233 231 223 223 227 229 235 239 244 246 251 254 254 256 253 255 254
309 306 303 300 297 299 303 306 311 308 309 307 305 301 284 264 260 253 256 253 240 233 225 230 228 238 241 240 242 237 235 233 233 232 228 226 231 234 241 245 251 253 253 253 253 256 261
311 307 303 303 302 296 292 298 300 304 309 307 310 313 300 279 263 260 251 256 256 240 230 219 221 235 245 244 234 233 230 230 229 232 234 231 228 232 237 238 243 246 249 248 250 254 253
314 308 305 303 301 299 292 291 292 292 303 308 303 305 306 297 281 270 260 253 257 262 241 226 220 222 240 245 238 233 228 227 225 227 223 225 223 228 235 234 236 234 234 242 248 251 253
312 309 308 305 303 301 296 290 287 288 292 294 296 300 301 300 291 279 265 260 253 258 261 249 232 228 222 240 247 236 230 225 225 217 220 217 219 228 233 228 221 224 232 236 242 246 250
314 312 307 306 304 301 299 296 294 293 291 288 283 289 299 301 296 287 273 271 263 261 257 260 248 238 214 225 245 237 231 226 222 220 224 217 223 227 228 234 238 237 236 240 247 242 253
318 314 310 306 306 305 301 297 297 297 297 293 287 281 286 296 303 285 286 268 274 268 272 261 261 256 227 186 248 205 213 218 222 219 218 221 226 229 235 239 242 244 245 247 255 239 256
320 317 314 310 309 309 309 304 298 295 297 298 295 285 281 281 283 308 295 297 271 264 280 268 257 258 244 226 210 216 203 215 221 221 224 222 233 229 234 236 237 242 243 245 249 258 258
319 318 314 310 310 311 310 307 305 299 295 297 299 296 284 279 278 281 303 286 263 281 291 274 261 255 247 244 239 208 206 211 210 217 220 225 234 232 233 237 238 242 246 250 248 250 256
318 316 312 309 309 310 311 309 306 304 300 294 294 299 292 280 273 271 276 309 228 240 292 281 237 239 247 233 248 234 212 213 217 207 208 223 223 221 224 234 233 247 238 243 254 255 263
314 313 311 308 308 308 310 313 310 306 302 299 293 288 289 286 275 276 277 269 236 216 245 286 246 224 206 209 232 231 226 226 217 214 228 235 237 226 233 226 229 234 222 194 222 236 249
311 311 309 307 306 307 308 310 313 311 305 300 295 288 285 284 284 264 263 260 191 207 263 268 248 222 225 219 221 216 211 216 215 215 208 225 225 220 223 217 227 224 212 189 214 210 245
307 308 309 307 307 307 308 308 309 312 308 301 293 289 285 291 272 240 232 203 222 230 236 253 285 240 226 219 232 219 215 216 222 223 227 210 215 226 229 231 221 216 205 195 208 218 264
300 303 305 304 305 305 306 307 308 308 310 304 295 289 285 299 256 223 222 237 228 229 256 243 258 299 263 240 217 220 217 221 221 219 215 219 223 233 225 235 215 210 209 221 222 236 298
296 297 300 304 303 301 304 305 308 308 306 307 302 295 303 278 236 223 219 229 239 244 241 254 249 254 285 272 247 262 218 242 222 222 223 233 260 241 242 224 222 216 225 199 211 192 231
297 295 295 297 299 299 299 302 305 306 304 306 306 300 326 282 216 219 221 227 257 258 244 244 251 242 248 259 266 276 256 241 248 244 231 232 233 242 221 210 207 209 211 205 200 213 232
299 296 293 293 296 299 301 299 301 304 302 306 297 288 301 302 245 231 238 236 233 245 242 250 254 252 255 267 269 273 272 270 203 211 229 233 227 235 229 220 228 227 223 209 189 201 229
298 297 293 292 293 293 295 298 297 299 304 305 294 282 275 281 260 257 258 250 254 249 251 255 259 261 266 259 264 262 265 262 267 284 266 229 238 230 243 243 235 222 221 225 227 232 218
298 300 298 291 289 290 288 292 292 292 295 292 292 288 284 293 244 279 268 255 250 262 267 260 261 261 266 263 260 265 268 263 273 284 281 276 275 273 258 245 254 226 228 223 220 218 233
301 297 298 293 289 289 288 287 286 284 285 281 281 278 274 271 273 276 278 269 261 258 265 268 263 265 257 258 265 264 267 267 267 267 260 267 265 268 290 298 310 306 287 233 222 221 222
302 295 298 294 291 289 290 285 279 280 273 267 273 280 285 271 275 284 275 259 261 265 258 266 260 285 281 267 260 261 279 283 284 276 249 265 269 279 284 292 293 293 290 280 272 247 226
308 295 296 294 292 285 287 285 278 273 269 271 274 278 278 275 282 283 276 270 280 270 266 267 277 280 274 262 276 285 280 272 271 266 267 261 269 274 269 280 280 284 279 276 267 264 230
309 297 293 294 293 293 291 282 277 271 266 271 275 278 282 280 279 276 281 277 277 272 273 274 274 270 268 291 283 275 265 263 261 258 255 258 256 254 266 284 260 267 257 262 282 271 252
306 296 291 293 291 285 292 286 275 268 265 267 270 267 272 275 280 276 277 280 279 275 272 276 277 279 289 282 257 246 243 245 257 258 252 246 241 243 244 245 267 267 258 257 260 269 259
303 293 291 295 290 287 287 286 279 273 268 266 267 266 267 271 270 276 284 282 282 276 281 281 289 288 284 259 222 215 220 231 233 246 246 244 242 226 237 247 251 265 271 271 278 259 257
302 293 294 296 295 294 292 285 281 270 266 269 270 268 262 263 273 273 275 280 278 272 280 294 296 297 292 234 211 212 219 230 227 231 223 210 216 217 226 238 253 263 269 274 230 260 259
299 297 298 299 299 298 293 287 280 268 265 271 277 274 256 270 285 274 270 267 266 272 280 291 292 276 266 210 208 212 224 225 229 234 223 213 187 213 225 229 243 257 258 237 270 278 280
300 303 302 302 303 300 295 288 277 264 269 279 279 276 285 284 279 274 272 264 264 274 280 281 276 268 251 214 216 217 224 224 227 232 228 223 219 216 216 230 255 266 257 272 281 267 261
Height
3046 3044 3041 3039 3036 3034 3032 3029 3025 3022 3019 3017 3015 3015 3017 3019 3021 3025 3030 3034 3039 3045 3049 3054 3058 3061 3064 3066 3069 3077 3080 3084 3088 3092 3095 3098 3100 3102 3104 3106 3108 3108 3111 3111 3112 3114 3115
3041 3038 3036 3034 3031 3029 3027 3024 3021 3018 3016 3013 3010 3008 3008 3009 3011 3012 3015 3021 3027 3033 3039 3044 3048 3050 3053 3053 3066 3070 3075 3078 3080 3084 3088 3091 3094 3097 3098 3099 3101 3103 3105 3106 3107 3107 3110
3035 3033 3030 3028 3026 3024 3021 3019 3016 3014 3011 3009 3006 3003 3001 3000 3000 3003 3006 3007 3013 3022 3027 3033 3035 3035 3038 3042 3052 3061 3065 3070 3074 3078 3081 3083 3087 3090 3091 3093 3094 3096 3100 3100 3101 3103 3104
3030 3027 3025 3022 3020 3018 3016 3013 3011 3009 3007 3005 3002 2999 2996 2994 2994 2994 2996 2999 3000 3005 3014 3019 3025 3025 3023 3031 3042 3047 3056 3060 3067 3071 3076 3078 3080 3082 3083 3088 3087 3088 3091 3092 3096 3097 3097
3025 3022 3019 3016 3014 3012 3010 3008 3006 3004 3002 3000 2998 2995 2992 2989 2988 2987 2987 2989 2992 2992 2997 3005 3011 3012 3014 3016 3027 3040 3046 3054 3059 3063 3068 3070 3072 3074 3077 3079 3081 3078 3081 3084 3090 3092 3091
3020 3017 3014 3011 3008 3006 3004 3002 3000 2999 2997 2995 2993 2991 2988 2985 2983 2982 2982 2982 2983 2984 2985 2990 2996 3006 3005 3005 3013 3027 3037 3044 3049 3055 3057 3060 3062 3064 3064 3065 3061 3068 3073 3078 3081 3085 3086
3015 3011 3008 3005 3002 3000 2998 2996 2994 2992 2990 2989 2987 2985 2985 2983 2980 2978 2978 2978 2979 2979 2975 2977 2983 2986 2999 3000 3006 3011 3023 3030 3035 3041 3043 3047 3051 3039 3048 3056 3064 3068 3067 3070 3076 3081 3081
3010 3006 3002 3000 2997 2995 2993 2991 2989 2987 2985 2983 2982 2981 2980 2979 2977 2976 2973 2973 2975 2974 2969 2967 2971 2973 2991 2994 3000 3001 3009 3016 3019 3022 3033 3040 3029 3037 3046 3052 3058 3060 3060 3060 3071 3074 3076
3004 3000 2997 2994 2992 2990 2988 2985 2983 2981 2979 2978 2976 2975 2975 2974 2974 2972 2971 2971 2971 2969 2966 2958 2962 2966 2980 2987 2990 2993 2999 3005 3010 3014 3015 3019 3008 3036 3038 3043 3047 3047 3048 3060 3065 3068 3068
3000 2996 2993 2990 2988 2985 2984 2981 2978 2976 2975 2973 2972 2970 2969 2969 2971 2969 2969 2968 2967 2968 2963 2950 2953 2953 2961 2973 2977 2987 2991 2998 2999 3000 3007 3012 3019 3023 3029 3031 3037 3038 3045 3054 3059 3063 3058
2995 2992 2989 2986 2983 2981 2979 2976 2974 2972 2970 2968 2967 2966 2965 2963 2963 2963 2967 2966 2965 2967 2965 2950 2948 2949 2951 2955 2971 2978 2985 2989 2988 2991 2995 2994 3000 3011 3019 3015 3031 3030 3042 3047 3051 3052 3054
2990 2987 2984 2982 2979 2976 2974 2972 2969 2967 2965 2963 2962 2961 2959 2959 2957 2960 2961 2963 2964 2968 2957 2948 2945 2942 2945 2948 2954 2968 2975 2981 2981 2984 2986 2993 2997 3004 3006 3017 3022 3031 3039 3043 3044 3047 3041
2985 2983 2979 2977 2974 2972 2970 2967 2965 2962 2960 2958 2957 2955 2954 2953 2955 2956 2958 2960 2963 2959 2951 2944 2942 2942 2941 2942 2949 2958 2961 2965 2971 2976 2975 2982 2987 2994 3002 3009 3017 3023 3030 3033 3039 3038 3014
2980 2977 2975 2972 2970 2967 2965 2963 2960 2957 2955 2952 2950 2949 2949 2949 2949 2951 2955 2957 2953 2945 2941 2941 2940 2941 2942 2944 2945 2949 2953 2956 2961 2966 2971 2973 2982 2983 2986 2991 3003 3007 3016 3017 3020 3018 3013
2975 2972 2970 2967 2965 2962 2960 2958 2956 2953 2950 2947 2944 2943 2942 2944 2943 2946 2951 2948 2932 2934 2938 2940 2942 2942 2942 2942 2943 2945 2947 2951 2953 2961 2967 2967 2968 2974 2977 2985 2994 3000 3003 3008 3013 3016 3017
2969 2966 2964 2961 2959 2957 2955 2953 2950 2948 2945 2942 2938 2937 2939 2937 2937 2940 2942 2927 2929 2934 2937 2941 2942 2944 2943 2942 2943 2940 2943 2940 2947 2952 2958 2963 2966 2968 2974 2980 2983 2987 2996 3002 3004 3006 3006
2962 2960 2958 2956 2954 2951 2949 2947 2945 2943 2940 2937 2934 2932 2935 2931 2932 2933 2923 2922 2927 2929 2934 2938 2939 2941 2940 2942 2943 2942 2942 2943 2946 2950 2954 2959 2961 2961 2967 2962 2966 2978 2984 2985 2991 2993 2986
2955 2953 2951 2949 2948 2946 2944 2942 2940 2938 2935 2933 2931 2929 2930 2929 2930 2925 2917 2922 2925 2924 2929 2932 2933 2935 2936 2940 2942 2942 2941 2941 2941 2943 2947 2948 2945 2950 2953 2957 2963 2963 2965 2971 2975 2975 2981
2949 2946 2944 2942 2941 2939 2938 2937 2934 2933 2931 2928 2925 2922 2925 2924 2921 2919 2919 2919 2920 2923 2926 2928 2929 2930 2934 2937 2941 2939 2938 2937 2940 2941 2939 2940 2939 2940 2948 2954 2952 2949 2954 2962 2965 2972 2967
2942 2939 2937 2935 2934 2932 2931 2930 2929 2927 2927 2924 2922 2918 2916 2915 2913 2914 2915 2913 2914 2918 2919 2921 2921 2925 2929 2933 2936 2933 2931 2929 2933 2936 2935 2936 2937 2936 2934 2938 2940 2944 2942 2950 2952 2959 2947
2935 2933 2930 2928 2927 2925 2924 2923 2922 2921 2921 2919 2917 2913 2913 2910 2909 2909 2909 2906 2908 2911 2913 2915 2912 2918 2925 2927 2926 2921 2920 2922 2926 2930 2933 2933 2930 2930 2929 2927 2927 2929 2930 2936 2940 2940 2944
2928 2926 2923 2921 2920 2918 2917 2916 2915 2914 2914 2912 2910 2908 2907 2904 2903 2903 2901 2899 2902 2905 2906 2904 2906 2915 2916 2910 2903 2912 2919 2921 2920 2925 2925 2926 2922 2923 2916 2921 2929 2923 2922 2922 2922 2926 2934
2921 2918 2916 2914 2912 2911 2910 2908 2908 2907 2906 2903 2903 2903 2900 2895 2896 2896 2893 2894 2895 2899 2896 2897 2906 2908 2898 2879 2908 2906 2912 2913 2913 2916 2919 2922 2919 2922 2918 2925 2922 2919 2913 2918 2918 2919 2923
2914 2911 2909 2907 2905 2903 2901 2900 2900 2900 2899 2897 2897 2896 2893 2886 2888 2887 2885 2888 2888 2888 2885 2890 2894 2892 2875 2898 2898 2898 2898 2900 2903 2904 2909 2911 2914 2916 2906 2912 2911 2903 2911 2911 2910 2912 2913
2906 2903 2901 2899 2898 2896 2894 2892 2891 2891 2891 2889 2890 2889 2886 2878 2879 2876 2877 2880 2880 2877 2876 2877 2879 2876 2884 2885 2886 2886 2888 2890 2884 2890 2894 2899 2905 2907 2904 2902 2896 2892 2900 2906 2905 2895 2902
2898 2895 2893 2891 2889 2888 2885 2884 2883 2883 2883 2881 2881 2881 2878 2873 2864 2869 2868 2870 2869 2867 2864 2863 2867 2868 2869 2866 2870 2870 2872 2876 2879 2877 2880 2886 2891 2899 2897 2892 2884 2877 2888 2893 2901 2886 2891
2889 2887 2885 2883 2881 2878 2876 2875 2875 2874 2873 2872 2870 2872 2869 2862 2856 2862 2859 2858 2863 2862 2856 2854 2853 2852 2853 2851 2854 2858 2861 2864 2866 2867 2872 2875 2880 2882 2881 2884 2875 2870 2878 2886 2886 2880 2885
2882 2880 2877 2874 2872 2869 2867 2866 2865 2864 2863 2862 2859 2862 2860 2854 2847 2850 2850 2850 2851 2852 2850 2848 2847 2842 2842 2841 2845 2847 2849 2852 2856 2856 2858 2862 2867 2869 2871 2873 2867 2863 2865 2872 2870 2865 2862
2876 2873 2870 2866 2863 2860 2858 2856 2856 2856 2855 2853 2847 2852 2850 2844 2837 2838 2839 2840 2842 2844 2842 2839 2837 2836 2834 2834 2836 2839 2841 2844 2844 2845 2850 2852 2848 2851 2856 2852 2851 2849 2852 2856 2858 2855 2858